When you browse on this site, cookies collect data to enhance your experience and personalize the content and advertising you see.
Visit our Privacy Policy to learn more. By continuing to use the site, you agree to this use of cookies and data.
  • In Norway
  • List of Countries
  • For 7 days
  • Water Temperature
  • Satellite Maps
  • Weather Map
  • Weather Widgets
  • user-avatar
    Login

    Hourly Weather Quito

    Today, 22 January, Tuesday

    Time Temperature Precipitation Wind Pressure Humidity
    00:00 +16°C° 0.2 mm 0 mps 622 mmHg 94%
    01:00 +15°C° 0 mm 0 mps 622 mmHg 94%
    02:00 +15°C° 0 mm 0 mps 622 mmHg 95%
    03:00 +15°C° 0 mm 0 mps 622 mmHg 95%
    04:00 +14°C° 0 mm 0 mps 621 mmHg 96%
    05:00 +15°C° 0 mm 0 mps 622 mmHg 95%
    06:00 +16°C° 0 mm 0 mps 622 mmHg 94%
    07:00 +17°C° 0 mm 0 mps 623 mmHg 92%
    08:00 +21°C° 0.4 mm 1 mps 623 mmHg 86%
    09:00 +22°C° 0.4 mm 1 mps 624 mmHg 80%
    10:00 +24°C° 0.4 mm 1 mps 624 mmHg 75%
    11:00 +25°C° 0.2 mm 2 mps 624 mmHg 69%
    12:00 +26°C° 0.2 mm 2 mps 623 mmHg 62%
    13:00 +27°C° 0.2 mm 3 mps 623 mmHg 56%
    14:00 +27°C° 0.2 mm 3 mps 623 mmHg 59%
    15:00 +26°C° 0.2 mm 3 mps 622 mmHg 62%
    16:00 +26°C° 0.2 mm 3 mps 622 mmHg 66%
    17:00 +24°C° 0.7 mm 2 mps 621 mmHg 72%
    18:00 +22°C° 0.7 mm 1 mps 621 mmHg 79%
    19:00 +18°C° 0.7 mm 0 mps 621 mmHg 86%
    20:00 +20°C° 0.3 mm 1 mps 621 mmHg 87%
    21:00 +19°C° 0.3 mm 1 mps 622 mmHg 88%
    22:00 +19°C° 0.3 mm 1 mps 622 mmHg 89%
    23:00 +19°C° 0.9 mm 1 mps 622 mmHg 90%

    Tomorrow, 23 January, Wednesday

    Time Temperature Precipitation Wind Pressure Humidity
    00:00 +19°C° 0.9 mm 1 mps 622 mmHg 91%
    01:00 +19°C° 0.9 mm 1 mps 622 mmHg 92%
    02:00 +19°C° 0.1 mm 1 mps 621 mmHg 93%
    03:00 +16°C° 0.1 mm 0 mps 621 mmHg 94%
    04:00 +16°C° 0.1 mm 0 mps 621 mmHg 94%
    05:00 +16°C° 0.1 mm 0 mps 621 mmHg 93%
    06:00 +17°C° 0.1 mm 0 mps 622 mmHg 91%
    07:00 +18°C° 0.1 mm 0 mps 622 mmHg 90%
    08:00 +21°C° 0.3 mm 1 mps 623 mmHg 82%
    09:00 +23°C° 0.3 mm 1 mps 624 mmHg 75%
    10:00 +25°C° 0.3 mm 1 mps 624 mmHg 67%
    11:00 +25°C° 0.6 mm 2 mps 624 mmHg 64%
    12:00 +26°C° 0.6 mm 2 mps 624 mmHg 61%
    13:00 +26°C° 0.6 mm 2 mps 623 mmHg 58%
    14:00 +25°C° 0.5 mm 2 mps 622 mmHg 66%
    15:00 +24°C° 0.5 mm 2 mps 622 mmHg 74%
    16:00 +22°C° 0.5 mm 1 mps 621 mmHg 82%
    17:00 +21°C° 0.3 mm 1 mps 621 mmHg 84%
    18:00 +20°C° 0.3 mm 1 mps 621 mmHg 87%
    19:00 +20°C° 0.3 mm 1 mps 621 mmHg 89%
    20:00 +19°C° 0 mm 1 mps 621 mmHg 90%
    21:00 +18°C° 0 mm 1 mps 621 mmHg 90%
    22:00 +18°C° 0 mm 1 mps 622 mmHg 91%
    23:00 +16°C° 0 mm 1 mps 621 mmHg 90%

    Day after tomorrow, 24 January, Thursday

    Time Temperature Precipitation Wind Pressure Humidity
    00:00 +16°C° 0 mm 1 mps 621 mmHg 90%
    01:00 +16°C° 0 mm 1 mps 621 mmHg 89%
    02:00 +16°C° 0 mm 1 mps 621 mmHg 90%
    03:00 +16°C° 0 mm 1 mps 620 mmHg 91%
    04:00 +15°C° 0 mm 1 mps 620 mmHg 92%
    05:00 +16°C° 0 mm 1 mps 621 mmHg 91%
    06:00 +18°C° 0 mm 1 mps 621 mmHg 90%
    07:00 +18°C° 0 mm 1 mps 622 mmHg 89%
    08:00 +21°C° 0 mm 1 mps 623 mmHg 80%
    09:00 +23°C° 0 mm 1 mps 624 mmHg 71%
    10:00 +26°C° 0 mm 1 mps 625 mmHg 62%
    11:00 +26°C° 0 mm 2 mps 624 mmHg 58%
    12:00 +27°C° 0 mm 2 mps 623 mmHg 54%
    13:00 +27°C° 0 mm 3 mps 623 mmHg 50%
    14:00 +26°C° 0.1 mm 3 mps 622 mmHg 54%
    15:00 +26°C° 0.1 mm 2 mps 621 mmHg 58%
    16:00 +25°C° 0.1 mm 2 mps 621 mmHg 62%
    17:00 +24°C° 0.2 mm 1 mps 621 mmHg 68%
    18:00 +22°C° 0.2 mm 1 mps 621 mmHg 73%
    19:00 +19°C° 0.2 mm 0 mps 621 mmHg 78%
    20:00 +20°C° 0.1 mm 1 mps 621 mmHg 79%
    21:00 +20°C° 0.1 mm 1 mps 622 mmHg 81%
    22:00 +20°C° 0.1 mm 1 mps 622 mmHg 82%
    23:00 +19°C° 0.1 mm 1 mps 622 mmHg 84%

    25 January, Friday

    Time Temperature Precipitation Wind Pressure Humidity
    00:00 +19°C° 0.1 mm 1 mps 622 mmHg 86%
    01:00 +19°C° 0.1 mm 1 mps 621 mmHg 88%
    02:00 +18°C° 0.1 mm 1 mps 621 mmHg 89%
    03:00 +18°C° 0.1 mm 1 mps 621 mmHg 91%
    04:00 +16°C° 0.1 mm 1 mps 621 mmHg 92%
    05:00 +18°C° 0 mm 1 mps 621 mmHg 90%
    06:00 +17°C° 0 mm 2 mps 622 mmHg 89%
    07:00 +18°C° 0 mm 2 mps 622 mmHg 87%
    08:00 +19°C° 0.1 mm 2 mps 623 mmHg 81%
    09:00 +21°C° 0.1 mm 2 mps 624 mmHg 75%
    10:00 +24°C° 0.1 mm 2 mps 624 mmHg 69%
    11:00 +25°C° 0.4 mm 2 mps 624 mmHg 65%
    12:00 +26°C° 0.4 mm 2 mps 624 mmHg 61%
    13:00 +27°C° 0.4 mm 1 mps 623 mmHg 56%
    14:00 +26°C° 1.2 mm 1 mps 623 mmHg 63%
    15:00 +25°C° 1.2 mm 1 mps 622 mmHg 69%
    16:00 +25°C° 1.2 mm 1 mps 621 mmHg 75%
    17:00 +23°C° 1.1 mm 1 mps 621 mmHg 79%
    18:00 +21°C° 1.1 mm 1 mps 621 mmHg 84%
    19:00 +19°C° 1.1 mm 1 mps 621 mmHg 88%
    20:00 +19°C° 0 mm 1 mps 622 mmHg 90%
    21:00 +18°C° 0 mm 2 mps 622 mmHg 91%
    22:00 +17°C° 0 mm 2 mps 623 mmHg 93%
    23:00 +17°C° 0 mm 2 mps 622 mmHg 93%

    26 January, Saturday

    Time Temperature Precipitation Wind Pressure Humidity
    00:00 +17°C° 0 mm 2 mps 622 mmHg 94%
    01:00 +16°C° 0 mm 2 mps 622 mmHg 95%
    02:00 +16°C° 0 mm 1 mps 622 mmHg 95%
    03:00 +16°C° 0 mm 1 mps 621 mmHg 95%
    04:00 +16°C° 0 mm 1 mps 621 mmHg 95%
    05:00 +18°C° 0 mm 1 mps 622 mmHg 93%
    06:00 +17°C° 0 mm 2 mps 622 mmHg 92%
    07:00 +17°C° 0 mm 2 mps 623 mmHg 91%
    08:00 +19°C° 0.1 mm 2 mps 623 mmHg 85%
    09:00 +21°C° 0.1 mm 2 mps 624 mmHg 78%
    10:00 +24°C° 0.1 mm 2 mps 625 mmHg 71%
    11:00 +25°C° 0.3 mm 1 mps 624 mmHg 66%
    12:00 +27°C° 0.3 mm 1 mps 624 mmHg 61%
    13:00 +28°C° 0.3 mm 1 mps 624 mmHg 55%
    14:00 +27°C° 0.5 mm 1 mps 624 mmHg 59%
    15:00 +27°C° 0.5 mm 1 mps 623 mmHg 62%
    16:00 +26°C° 0.5 mm 1 mps 622 mmHg 66%
    17:00 +24°C° 0.9 mm 1 mps 622 mmHg 73%
    18:00 +21°C° 0.9 mm 2 mps 622 mmHg 81%
    19:00 +19°C° 0.9 mm 2 mps 622 mmHg 89%
    20:00 +18°C° 0.6 mm 2 mps 622 mmHg 91%
    21:00 +18°C° 0.6 mm 2 mps 622 mmHg 92%
    22:00 +17°C° 0.6 mm 2 mps 623 mmHg 94%
    23:00 +17°C° 0.1 mm 2 mps 622 mmHg 94%

    27 January, Sunday

    Time Temperature Precipitation Wind Pressure Humidity
    00:00 +17°C° 0.1 mm 2 mps 622 mmHg 94%
    01:00 +17°C° 0.1 mm 2 mps 621 mmHg 95%
    02:00 +16°C° 0 mm 2 mps 621 mmHg 95%
    03:00 +16°C° 0 mm 2 mps 621 mmHg 95%
    04:00 +16°C° 0 mm 2 mps 621 mmHg 95%
    05:00 +18°C° 0 mm 1 mps 621 mmHg 93%
    06:00 +18°C° 0 mm 1 mps 622 mmHg 92%
    07:00 +19°C° 0 mm 1 mps 623 mmHg 91%
    08:00 +20°C° 0.4 mm 2 mps 623 mmHg 83%
    09:00 +23°C° 0.4 mm 2 mps 624 mmHg 76%
    10:00 +25°C° 0.4 mm 2 mps 624 mmHg 68%
    11:00 +26°C° 0.4 mm 2 mps 624 mmHg 64%
    12:00 +27°C° 0.4 mm 2 mps 624 mmHg 59%
    13:00 +27°C° 0.4 mm 2 mps 623 mmHg 54%
    14:00 +27°C° 0.3 mm 2 mps 623 mmHg 56%
    15:00 +27°C° 0.3 mm 2 mps 622 mmHg 58%
    16:00 +27°C° 0.3 mm 2 mps 622 mmHg 59%
    17:00 +24°C° 1.2 mm 2 mps 621 mmHg 68%
    18:00 +22°C° 1.2 mm 1 mps 621 mmHg 77%
    19:00 +20°C° 1.2 mm 1 mps 621 mmHg 86%
    20:00 +19°C° 0.6 mm 1 mps 621 mmHg 87%
    21:00 +19°C° 0.6 mm 1 mps 621 mmHg 89%
    22:00 +18°C° 0.6 mm 1 mps 622 mmHg 90%
    23:00 +18°C° 0.1 mm 1 mps 621 mmHg 90%
    Show more